[[{"header":{"parameterUnit":"m.s-1","parameterCategory":1,"la1":30.2991,"la2":30.254,"lo1":-89.0895,"lo2":-89.0444,"dy":0.0017,"dx":0.0017,"nx":28,"ny":28,"refTime":"2025-12-15T03:00:00:Z","depth":0,"parameterNumber":2,"parameterNumberName":"U-component_of_WINDS"},"data":[0,0,0,0,0,0,0,0,0,0,0,0,0,0,0,0,0,0,0,0,0,0,0,0,0,0,0,0,0,0,0,0,0,0,0,0,0,0,0,0,0,0,0,0,0,0,0,0,0,0,0,0,0,0,0,0,0,0,-2.9258,-2.9259,0,-2.9333,-2.9334,-2.9335,-2.9253,-2.925,-2.9247,-2.9244,-2.9322,-2.9327,-2.9332,0,0,0,0,0,0,0,0,0,0,0,0,0,-2.9045,-2.9049,-2.9258,-2.9259,-2.926,-2.9333,-2.9334,-2.9335,-2.9254,-2.925,-2.9246,-2.9242,-2.9321,-2.9327,-2.9333,0,0,0,0,0,0,0,0,0,0,0,0,0,-2.9131,-2.9051,-2.9258,-2.9228,-2.9226,-2.9333,-2.9334,-2.9335,-2.9254,-2.925,-2.9245,-2.9241,-2.9319,-2.9326,-2.9334,-2.9474,0,0,-2.9356,-2.936,0,0,0,0,0,0,0,0,-2.9126,-2.9139,-2.9232,-2.923,-2.9228,-2.9279,-2.9288,-2.9382,-2.9256,-2.9244,-2.9244,-2.9238,-2.9312,-2.932,-2.9344,-2.9477,-2.9481,-2.9357,-2.9362,-2.9365,-2.9367,0,0,0,0,0,0,0,-2.912,-2.9135,-2.9288,-2.9233,-2.9231,-2.9211,-2.9218,-2.9305,-2.9303,-2.9244,-2.9239,-2.9248,-2.931,-2.9337,-2.9345,-2.9482,-2.9357,-2.9364,-2.9368,-2.9371,-2.9733,-2.9738,0,0,0,0,0,0,-2.9117,-2.913,-2.9285,-2.929,-2.9164,-2.9219,-2.9227,-2.9267,-2.9302,-2.9303,-2.9252,-2.9244,-2.9326,-2.9337,-2.9348,-2.9514,-2.9365,-2.9372,-2.9376,-2.9728,-2.9734,-2.974,0,0,0,0,0,0,-2.9113,-2.9132,-2.9282,-2.9209,-2.9226,-2.9227,-2.9274,-2.9271,-2.9298,-2.9308,-2.9307,-2.928,-2.9323,-2.9337,-2.9443,-2.9516,-2.9375,-2.9382,-2.9722,-2.973,-2.9737,-2.9849,0,0,0,0,0,0,-2.9107,-2.9131,-2.9184,-2.9211,-2.9231,-2.9377,-2.9278,-2.9276,-2.9311,-2.9301,-2.9334,-2.9335,-2.9321,-2.9432,-2.945,-2.9524,-2.9388,-2.9716,-2.9726,-2.9735,-2.9839,-2.986,-2.9877,0,0,0,0,0,-2.91,-2.9213,-2.9188,-2.9207,-2.9297,-2.9381,-2.9392,-2.9373,-2.9317,-2.9371,-2.9377,-2.9334,-2.9504,-2.9443,-2.9463,-2.954,-2.9711,-2.9723,-2.9734,-2.983,-2.9856,-2.9877,0,0,0,0,0,0,-2.9197,-2.9216,-2.9188,-2.9313,-2.9346,-2.9367,-2.9434,-2.94,-2.945,-2.9439,-2.9413,-2.9421,-2.9533,-2.9547,-2.9479,-2.9677,-2.9599,-2.9615,-2.9665,-2.9689,-2.9708,-2.9703,-2.9394,0,0,0,0,0,-2.9233,-2.9299,-2.9312,-2.9421,-2.9439,-2.9434,-2.947,-2.9451,-2.9485,-2.9498,-2.9512,-2.9547,-2.9607,-2.9649,-2.9705,-2.9839,-2.9845,-2.9902,-2.9921,-2.9937,-2.9952,-3.0023,-3.0049,-2.9778,-2.9778,-2.9777,0,0,-2.9308,-2.9326,-2.937,-2.9441,-2.9464,-2.9534,-2.9446,-2.9523,-2.9575,-2.951,-2.9611,-2.9622,-2.9658,-2.9779,-2.9833,-2.9794,-3.0027,-2.9951,-2.9964,-2.997,-3.0038,-3.0064,-3.0086,-2.9786,-2.9784,-2.9783,0,0,-2.948,-2.9501,-2.9594,-2.9618,-2.9654,-2.965,-2.9672,-2.9698,-2.9703,-2.9803,-2.9756,-2.9816,-2.9922,-2.995,-2.9978,-3.0159,-3.0121,-3.0178,-3.0279,-3.0349,-3.0371,-3.0389,-3.0455,-3.0478,-3.0192,-3.0192,-3.0192,0,-2.957,-2.9672,-2.9646,-2.9726,-2.9759,-2.9702,-2.9797,-2.9822,-2.9875,-2.9899,-2.9854,-2.9985,-3.0005,-3.0131,-3.0175,-3.0199,-3.0225,-3.0175,-3.0369,-3.0388,-3.0405,-3.0467,-3.0492,-3.0199,-3.0198,-3.0197,-3.0197,0,-2.978,-2.9851,-2.9922,-2.9974,-3.0014,-3.0101,-3.0089,-3.0133,-3.011,-3.011,-3.0213,-3.0235,-3.0295,-3.0323,-3.0302,-3.0446,-3.0421,-3.0373,-3.0294,-3.0438,-3.0496,-3.052,-3.0209,-3.0206,-3.0204,-3.0202,0,0,-3.0018,-3.0053,-3.008,-3.0102,-3.0137,-3.0192,-3.0275,-3.0333,-3.0371,-3.0409,-3.0479,-3.0569,-3.0524,-3.0556,-3.0538,-3.0599,-3.0741,-3.0544,-3.0544,-3.0581,-3.0902,-3.0939,-3.0967,-3.0715,-3.072,-3.0723,-3.0899,0,-3.0192,-3.0338,-3.0316,-3.0457,-3.0522,-3.0468,-3.0541,-3.057,-3.0572,-3.0628,-3.0629,-3.0694,-3.063,-3.0649,-3.0707,-3.0712,-3.0806,-3.0698,-3.0781,-3.0785,-3.0776,-3.0997,-3.1037,-3.1202,-3.0921,-3.0925,-3.0928,0,-3.0416,-3.0461,-3.0607,-3.063,-3.0657,-3.0723,-3.0774,-3.0828,-3.0859,-3.0856,-3.0891,-3.0861,-3.0944,-3.0862,-3.0977,-3.0904,-3.0936,-3.0943,-3.0949,-3.0958,-3.0867,-3.1013,-3.1254,-3.1279,-3.0963,-3.096,-3.0958,0,-3.0577,-3.0674,-3.0774,-3.0794,-3.0824,-3.0871,-3.0886,-3.0912,-3.0948,-3.0992,-3.1015,-3.1068,-3.1098,-3.114,-3.1125,-3.1066,-3.1244,-3.116,-3.1244,-3.1245,-3.1286,-3.1284,-3.1537,-3.1304,-3.1304,-3.1303,-3.1303,0,-3.0775,-3.0867,-3.0846,-3.0909,-3.101,-3.0983,-3.1085,-3.1092,-3.1116,-3.1178,-3.1134,-3.1194,-3.1169,-3.1227,-3.1215,-3.1313,-3.1326,-3.1326,-3.1323,-3.1332,-3.1332,-3.1354,-3.1343,-3.131,-3.1308,-3.1307,-3.1306,0,-3.0973,-3.0963,-3.1069,-3.1087,-3.1093,-3.1167,-3.1183,-3.1241,-3.1238,-3.1317,-3.1334,-3.1331,-3.1396,-3.1384,-3.1457,-3.1449,-3.1571,-3.1553,-3.1561,-3.1558,-3.1643,-3.1636,-3.1921,-3.1957,-3.1699,-3.1701,-3.1703,0,-3.1101,-3.1171,-3.1196,-3.1234,-3.1252,-3.1314,-3.135,-3.1326,-3.1365,-3.1405,-3.1458,-3.1519,-3.1568,-3.1675,-3.1679,-3.1734,-3.1717,-3.1813,-3.1725,-3.1732,-3.172,-3.1717,-3.1724,-3.1831,-3.1834,-3.1837,-3.1838,0,-3.133,-3.1321,-3.1374,-3.1426,-3.1469,-3.1509,-3.1544,-3.1578,-3.1557,-3.1603,-3.1669,-3.1706,-3.178,-3.1842,-3.1892,-3.1907,-3.187,-3.1865,-3.1888,-3.1899,-3.1902,-3.1903,-3.1611,-3.186,-3.1858,-3.1856,-3.1855,-3.1854,-3.1498,-3.1557,-3.1584,-3.1644,-3.1668,-3.1701,-3.1756,-3.176,-3.1814,-3.1872,-3.1854,-3.193,-3.1957,-3.2022,-3.2042,-3.21,-3.2065,-3.2098,-3.2106,-3.2115,-3.2126,-3.1891,-3.2109,-3.2109,-3.2108,-3.2108,-3.2107,0,-3.1726,-3.1739,-3.1795,-3.1845,-3.1893,-3.1852,-3.1888,-3.1931,-3.1997,-3.2026,-3.2074,-3.215,-3.2208,-3.2216,-3.2272,-3.2317,-3.2302,-3.2333,-3.233,-3.2334,-3.2154,-3.213,-3.2344,-3.2344,-3.2344,-3.2344,-3.2344,-3.2344,-3.185,-3.1948,-3.1942,-3.2051,-3.2063,-3.2137,-3.2161,-3.2191,-3.2214,-3.2301,-3.2349,-3.2353,-3.2373,-3.243,-3.2482,-3.2482,-3.2506,-3.2544,-3.2538,-3.2371,-3.2347,-3.2325,-3.2301,-3.2549,-3.2549,-3.2713,-3.2715,-3.2716]},{"header":{"parameterUnit":"m.s-1","parameterCategory":1,"la1":30.2991,"la2":30.254,"lo1":-89.0895,"lo2":-89.0444,"dy":0.0017,"dx":0.0017,"nx":28,"ny":28,"refTime":"2025-12-15T03:00:00:Z","depth":0,"parameterNumber":3,"parameterNumberName":"V-component_of_WINDS"},"data":[0,0,0,0,0,0,0,0,0,0,0,0,0,0,0,0,0,0,0,0,0,0,0,0,0,0,0,0,0,0,0,0,0,0,0,0,0,0,0,0,0,0,0,0,0,0,0,0,0,0,0,0,0,0,0,0,0,0,-8.412,-8.4122,0,-8.4252,-8.4253,-8.4255,-8.4149,-8.4144,-8.414,-8.4136,-8.4264,-8.4271,-8.4278,0,0,0,0,0,0,0,0,0,0,0,0,0,-8.377,-8.3777,-8.412,-8.4122,-8.4124,-8.4252,-8.4253,-8.4255,-8.415,-8.4144,-8.4139,-8.4134,-8.4261,-8.427,-8.4279,0,0,0,0,0,0,0,0,0,0,0,0,0,-8.3914,-8.378,-8.412,-8.4087,-8.4085,-8.4251,-8.4253,-8.4256,-8.4151,-8.4144,-8.4137,-8.4131,-8.4258,-8.4269,-8.428,-8.4485,0,0,-8.4315,-8.432,0,0,0,0,0,0,0,0,-8.3906,-8.3927,-8.409,-8.4089,-8.4088,-8.4177,-8.4177,-8.4332,-8.4152,-8.4126,-8.4135,-8.4128,-8.424,-8.4252,-8.4291,-8.4491,-8.4496,-8.4316,-8.4323,-8.4328,-8.4331,0,0,0,0,0,0,0,-8.3896,-8.3921,-8.4172,-8.4092,-8.4091,-8.4062,-8.4075,-8.4206,-8.4218,-8.4127,-8.412,-8.4137,-8.4238,-8.4281,-8.4294,-8.4498,-8.4316,-8.4326,-8.4333,-8.4337,-8.4869,-8.4876,0,0,0,0,0,0,-8.3891,-8.3913,-8.4168,-8.4176,-8.3979,-8.4074,-8.4089,-8.4155,-8.4217,-8.422,-8.4143,-8.4132,-8.4265,-8.428,-8.4298,-8.454,-8.4328,-8.4338,-8.4345,-8.4862,-8.4871,-8.4879,0,0,0,0,0,0,-8.3883,-8.3914,-8.4163,-8.4043,-8.4072,-8.4087,-8.4163,-8.4161,-8.4204,-8.4229,-8.423,-8.4185,-8.426,-8.4282,-8.4439,-8.4543,-8.4344,-8.4354,-8.4853,-8.4865,-8.4875,-8.5027,0,0,0,0,0,0,-8.3874,-8.3912,-8.3992,-8.4045,-8.4079,-8.4305,-8.4169,-8.4169,-8.4225,-8.4212,-8.4268,-8.4271,-8.4256,-8.4423,-8.445,-8.4555,-8.4363,-8.4844,-8.4858,-8.4871,-8.5013,-8.5042,-8.5067,0,0,0,0,0,-8.3862,-8.4029,-8.3997,-8.4028,-8.4179,-8.4311,-8.433,-8.4311,-8.4234,-8.4313,-8.4328,-8.4269,-8.4527,-8.444,-8.447,-8.458,-8.4837,-8.4854,-8.487,-8.5001,-8.5036,-8.5066,0,0,0,0,0,0,-8.3985,-8.4035,-8.4,-8.419,-8.4247,-8.4293,-8.4392,-8.435,-8.4428,-8.4412,-8.4384,-8.4397,-8.4563,-8.4586,-8.4488,-8.4779,-8.4669,-8.4693,-8.4758,-8.4792,-8.4819,-8.4809,-8.4372,0,0,0,0,0,-8.4035,-8.414,-8.4177,-8.434,-8.4371,-8.4377,-8.4434,-8.4414,-8.4471,-8.4495,-8.4521,-8.4577,-8.467,-8.4732,-8.482,-8.5015,-8.5025,-8.5105,-8.5132,-8.5154,-8.5175,-8.5278,-8.5314,-8.4933,-8.4933,-8.4932,0,0,-8.4138,-8.4178,-8.4246,-8.4366,-8.4408,-8.4515,-8.4398,-8.4516,-8.4595,-8.4512,-8.4662,-8.4684,-8.4744,-8.4921,-8.5001,-8.4946,-8.5282,-8.5175,-8.5193,-8.5201,-8.5299,-8.5335,-8.5367,-8.4944,-8.4942,-8.494,0,0,-8.4381,-8.4423,-8.4563,-8.4608,-8.4674,-8.4676,-8.471,-8.4762,-8.4774,-8.4925,-8.4865,-8.4956,-8.5118,-8.5163,-8.5207,-8.5465,-8.5414,-8.5494,-8.5635,-8.5736,-8.5766,-8.5793,-8.5884,-8.5917,-8.5514,-8.5515,-8.5515,0,-8.45,-8.4662,-8.464,-8.4764,-8.4817,-8.4749,-8.4889,-8.4933,-8.5023,-8.506,-8.4998,-8.52,-8.5235,-8.5421,-8.5484,-8.5523,-8.5558,-8.5488,-8.5764,-8.5791,-8.5815,-8.5901,-8.5936,-8.5524,-8.5523,-8.5522,-8.5521,0,-8.4804,-8.4917,-8.5022,-8.5113,-8.5178,-8.531,-8.5306,-8.5374,-8.5348,-8.5357,-8.551,-8.555,-8.5644,-8.5687,-8.5662,-8.5869,-8.5833,-8.5769,-8.5657,-8.5861,-8.5942,-8.5975,-8.5537,-8.5534,-8.5531,-8.5529,0,0,-8.5129,-8.5207,-8.5246,-8.5286,-8.5353,-8.5438,-8.5564,-8.5658,-8.5717,-8.578,-8.5885,-8.6023,-8.5963,-8.6013,-8.5993,-8.6082,-8.6283,-8.6006,-8.6007,-8.6055,-8.6511,-8.6559,-8.6598,-8.6249,-8.6255,-8.626,-8.6506,0,-8.5374,-8.5598,-8.5582,-8.5792,-8.5894,-8.583,-8.594,-8.5992,-8.6002,-8.6089,-8.6099,-8.6197,-8.6112,-8.6141,-8.6226,-8.624,-8.6374,-8.6222,-8.6343,-8.6348,-8.6331,-8.6641,-8.6692,-8.6923,-8.6537,-8.6543,-8.6547,0,-8.5691,-8.5768,-8.5989,-8.604,-8.6082,-8.6182,-8.6265,-8.6349,-8.6405,-8.6406,-8.6463,-8.6427,-8.6552,-8.6438,-8.6608,-8.6506,-8.6554,-8.6568,-8.6576,-8.6587,-8.646,-8.6659,-8.6996,-8.703,-8.6596,-8.6592,-8.6589,0,-8.5905,-8.6064,-8.6216,-8.6252,-8.6315,-8.6387,-8.6416,-8.6465,-8.6522,-8.6594,-8.663,-8.6715,-8.6762,-8.6827,-8.6814,-8.6733,-8.6988,-8.6873,-8.6991,-8.6991,-8.7047,-8.7044,-8.7397,-8.708,-8.7079,-8.7078,-8.7078,0,-8.6181,-8.6318,-8.6313,-8.6407,-8.6558,-8.6537,-8.6686,-8.6706,-8.6751,-8.6845,-8.6793,-8.6882,-8.6861,-8.6948,-8.6939,-8.708,-8.7102,-8.7105,-8.71,-8.7109,-8.7109,-8.714,-8.7124,-8.7087,-8.7085,-8.7084,-8.7082,0,-8.6446,-8.6448,-8.661,-8.6657,-8.6671,-8.6781,-8.6819,-8.6906,-8.6912,-8.7032,-8.7059,-8.7068,-8.7168,-8.7162,-8.7275,-8.7268,-8.7443,-8.742,-8.7426,-8.742,-8.7538,-8.7527,-8.7923,-8.7973,-8.7624,-8.7627,-8.763,0,-8.6622,-8.6726,-8.6784,-8.6845,-8.6879,-8.6978,-8.7036,-8.7018,-8.708,-8.7151,-8.7229,-8.7325,-8.7401,-8.7564,-8.7579,-8.7664,-8.7642,-8.7775,-8.7655,-8.766,-8.7643,-8.7637,-8.7647,-8.7799,-8.7803,-8.7806,-8.7808,0,-8.6933,-8.6929,-8.7016,-8.7104,-8.7175,-8.7243,-8.7304,-8.7356,-8.7344,-8.7416,-8.7519,-8.7578,-8.7694,-8.7789,-8.7871,-8.7897,-8.7851,-8.7846,-8.7878,-8.7888,-8.7887,-8.7888,-8.749,-8.7837,-8.7834,-8.7832,-8.7831,-8.783,-8.7158,-8.7248,-8.7303,-8.7401,-8.7446,-8.7504,-8.7588,-8.7605,-8.7692,-8.7786,-8.7769,-8.7885,-8.7935,-8.804,-8.8075,-8.8163,-8.8115,-8.8161,-8.8172,-8.8184,-8.8197,-8.7873,-8.8177,-8.8176,-8.8176,-8.8175,-8.8174,0,-8.7466,-8.7498,-8.7589,-8.7678,-8.7755,-8.7706,-8.7771,-8.7838,-8.7941,-8.7994,-8.807,-8.8187,-8.8279,-8.8301,-8.8389,-8.8455,-8.8435,-8.8478,-8.8473,-8.8479,-8.8235,-8.8199,-8.8492,-8.8492,-8.8492,-8.8492,-8.8492,-8.8492,-8.7636,-8.7784,-8.7787,-8.7956,-8.7986,-8.81,-8.8142,-8.8194,-8.8236,-8.8371,-8.8448,-8.8462,-8.8501,-8.8591,-8.8672,-8.8676,-8.871,-8.8762,-8.8757,-8.8528,-8.8497,-8.8466,-8.8432,-8.8769,-8.877,-8.8993,-8.8995,-8.8997]}]]